| time (UTC) | temp F | wind direction | speed knots | gust knots | rain 1hr in | rain 24hr in | rain mn in | humidity % | barometer mb |
| 20260506193001 | 87 | 117 | 3.5 | 6.1 | 0.00 | 0.00 | 0.00 | 76 | 1008.7 |
| 20260506191600 | 86 | 172 | 0.9 | 5.2 | 0.00 | 0.00 | 0.00 | 79 | 1008.9 |
| 20260506184557 | 86 | 118 | 0.9 | 6.1 | 0.00 | 0.00 | 0.00 | 79 | 1009.3 |
| 20260506183054 | 84 | 150 | 0.9 | 3.5 | 0.00 | 0.00 | 0.00 | 83 | 1009.5 |
| 20260506181552 | 84 | 141 | 1.7 | 4.3 | 0.00 | 0.00 | 0.00 | 81 | 1009.8 |
| 20260506174547 | 83 | 162 | 1.7 | 4.3 | 0.00 | 0.00 | 0.00 | 83 | 1010.3 |
| 20260506173049 | 83 | 108 | 0.0 | 2.6 | 0.00 | 0.00 | 0.00 | 84 | 1010.6 |
| 20260506171549 | 82 | 130 | 0.9 | 4.3 | 0.00 | 0.00 | 0.00 | 85 | 1010.6 |
| 20260506170055 | 82 | 150 | 0.9 | 4.3 | 0.00 | 0.00 | 0.00 | 86 | 1010.7 |
| 20260506164538 | 80 | 165 | 0.0 | 2.6 | 0.00 | 0.00 | 0.00 | 89 | 1010.6 |
| 20260506163056 | 79 | 141 | 0.0 | 5.2 | 0.00 | 0.00 | 0.00 | 90 | 1010.7 |
| 20260506161534 | 79 | 141 | 0.9 | 4.3 | 0.00 | 0.00 | 0.00 | 90 | 1010.4 |
| 20260506160034 | 79 | 182 | 0.9 | 5.2 | 0.00 | 0.00 | 0.00 | 89 | 1010.3 |
| 20260506154532 | 79 | 214 | 0.0 | 2.6 | 0.00 | 0.00 | 0.00 | 88 | 1010.2 |
| 20260506153031 | 80 | 203 | 0.9 | 6.1 | 0.00 | 0.00 | 0.00 | 87 | 1010.2 |
| 20260506151528 | 80 | 160 | 0.9 | 5.2 | 0.00 | 0.00 | 0.00 | 87 | 1009.7 |
| 20260506150028 | 79 | 259 | 0.9 | 3.5 | 0.00 | 0.00 | 0.00 | 88 | 1009.8 |
| 20260506144525 | 79 | 146 | 1.7 | 4.3 | 0.00 | 0.00 | 0.00 | 88 | 1009.4 |
| 20260506143022 | 79 | 122 | 0.0 | 4.3 | 0.00 | 0.00 | 0.00 | 90 | 1009.3 |
| 20260506141519 | 78 | 207 | 1.7 | 4.3 | 0.00 | 0.00 | 0.00 | 91 | 1009.2 |
| 20260506140016 | 78 | 139 | 0.9 | 5.2 | 0.00 | 0.00 | 0.00 | 93 | 1009.3 |
| 20260506134513 | 77 | 120 | 0.9 | 2.6 | 0.00 | 0.00 | 0.00 | 94 | 1009.4 |
| 20260506133011 | 76 | 131 | 0.0 | 0.9 | 0.00 | 0.00 | 0.00 | 95 | 1009.2 |
| 20260506131514 | 76 | 154 | 0.0 | 1.7 | 0.00 | 0.00 | 0.00 | 96 | 1009.4 |
| 20260506130010 | 75 | 162 | 0.9 | 2.6 | 0.00 | 0.00 | 0.00 | 96 | 1009.4 |
| 20260506124508 | 75 | 139 | 0.0 | 1.7 | 0.00 | 0.00 | 0.00 | 96 | 1009.4 |
| 20260506123007 | 75 | 166 | 0.0 | 1.7 | 0.00 | 0.00 | 0.00 | 96 | 1009.4 |
| 20260506121505 | 74 | 155 | 0.0 | 0.9 | 0.00 | 0.00 | 0.00 | 95 | 1009.1 |
| 20260506120006 | 74 | 125 | 0.0 | 0.9 | 0.00 | 0.00 | 0.00 | 95 | 1009.0 |
| 20260506114504 | 74 | 133 | 0.0 | 0.9 | 0.00 | 0.00 | 0.00 | 95 | 1008.9 |
| 20260506113004 | 74 | 139 | 0.0 | 1.7 | 0.00 | 0.00 | 0.00 | 95 | 1008.6 |
| 20260506111501 | 75 | 162 | 0.0 | 1.7 | 0.00 | 0.00 | 0.00 | 95 | 1008.4 |
| 20260506110002 | 75 | 149 | 0.0 | 3.5 | 0.00 | 0.00 | 0.00 | 95 | 1008.3 |
| 20260506104500 | 75 | 141 | 0.9 | 3.5 | 0.00 | 0.00 | 0.00 | 95 | 1008.3 |
| 20260506103059 | 74 | 155 | 0.0 | 3.5 | 0.00 | 0.00 | 0.00 | 94 | 1008.2 |
| 20260506101605 | 75 | 144 | 0.9 | 2.6 | 0.00 | 0.00 | 0.00 | 94 | 1008.2 |
| 20260506100058 | 75 | 152 | 0.0 | 2.6 | 0.00 | 0.00 | 0.00 | 94 | 1008.1 |
| 20260506094622 | 75 | 141 | 0.0 | 2.6 | 0.00 | 0.00 | 0.00 | 93 | 1008.0 |
| 20260506093057 | 75 | 165 | 0.0 | 3.5 | 0.00 | 0.00 | 0.00 | 93 | 1007.9 |
| 20260506091552 | 75 | 156 | 1.7 | 3.5 | 0.00 | 0.00 | 0.00 | 93 | 1008.0 |
| 20260506090051 | 76 | 145 | 1.7 | 3.5 | 0.00 | 0.00 | 0.00 | 92 | 1008.2 |
| 20260506084549 | 76 | 151 | 0.9 | 2.6 | 0.00 | 0.00 | 0.00 | 92 | 1008.2 |
| 20260506083049 | 76 | 139 | 0.0 | 2.6 | 0.00 | 0.00 | 0.00 | 92 | 1008.3 |
| 20260506081547 | 76 | 148 | 0.9 | 3.5 | 0.00 | 0.00 | 0.00 | 92 | 1008.4 |
| 20260506073046 | 76 | 153 | 1.7 | 4.3 | 0.00 | 0.00 | 0.00 | 92 | 1008.7 |
| 20260506071540 | 76 | 110 | 0.9 | 4.3 | 0.00 | 0.00 | 0.00 | 91 | 1008.7 |
| 20260506061538 | 77 | 141 | 0.9 | 4.3 | 0.00 | 0.00 | 0.00 | 91 | 1009.1 |
| 20260506044538 | 77 | 162 | 0.9 | 4.3 | 0.00 | 0.00 | 0.00 | 90 | 1009.1 |
| 20260506043028 | 77 | 131 | 0.0 | 4.3 | 0.00 | 0.00 | 0.00 | 90 | 1009.2 |
| 20260506041526 | 77 | 125 | 1.7 | 4.3 | 0.00 | 0.00 | 0.00 | 90 | 1008.8 |
| 20260506040048 | 77 | 214 | 0.9 | 6.1 | 0.00 | 0.00 | 0.00 | 89 | 1009.1 |
| 20260506034525 | 77 | 140 | 1.7 | 6.1 | 0.00 | 0.00 | 0.00 | 89 | 1008.8 |
| 20260506033024 | 77 | 120 | 1.7 | 7.8 | 0.00 | 0.00 | 0.00 | 88 | 1008.6 |
| 20260506031538 | 78 | 126 | 0.9 | 7.8 | 0.00 | 0.00 | 0.00 | 88 | 1008.5 |
| 20260506030022 | 78 | 169 | 2.6 | 7.8 | 0.00 | 0.00 | 0.00 | 87 | 1008.5 |
| 20260506024522 | 78 | 159 | 2.6 | 6.1 | 0.00 | 0.00 | 0.00 | 87 | 1008.2 |
| 20260506023021 | 78 | 108 | 1.7 | 7.0 | 0.00 | 0.00 | 0.00 | 87 | 1008.1 |
| 20260506021521 | 78 | 190 | 1.7 | 4.3 | 0.00 | 0.00 | 0.00 | 86 | 1007.9 |
| 20260506020020 | 78 | 226 | 2.6 | 6.1 | 0.00 | 0.00 | 0.00 | 86 | 1007.7 |
| 20260506014519 | 79 | 101 | 2.6 | 6.1 | 0.00 | 0.00 | 0.00 | 85 | 1007.5 |
| 20260506013019 | 79 | 143 | 1.7 | 5.2 | 0.00 | 0.00 | 0.00 | 85 | 1007.2 |
| 20260506011519 | 79 | 169 | 2.6 | 8.7 | 0.00 | 0.00 | 0.00 | 84 | 1006.9 |
| 20260506010018 | 79 | 122 | 2.6 | 5.2 | 0.00 | 0.00 | 0.00 | 83 | 1006.9 |
| 20260506004524 | 80 | 112 | 0.9 | 7.0 | 0.00 | 0.00 | 0.00 | 82 | 1006.8 |
| 20260506003017 | 80 | 141 | 2.6 | 6.1 | 0.00 | 0.00 | 0.00 | 81 | 1006.5 |
| 20260506001515 | 80 | 126 | 1.7 | 7.0 | 0.00 | 0.00 | 0.00 | 80 | 1006.5 |
| 20260506000017 | 80 | 125 | 3.5 | 9.6 | 0.00 | 0.00 | 0.00 | 79 | 1006.6 |
| 20260505234515 | 81 | 188 | 3.5 | 10.4 | 0.00 | 0.00 | 0.00 | 79 | 1006.5 |
| 20260505233014 | 81 | 140 | 3.5 | 11.3 | 0.00 | 0.00 | 0.00 | 80 | 1006.5 |
| 20260505231513 | 81 | 235 | 3.5 | 8.7 | 0.00 | 0.00 | 0.00 | 79 | 1006.5 |
| 20260505230021 | 81 | 110 | 4.3 | 11.3 | 0.00 | 0.00 | 0.00 | 79 | 1006.6 |
| 20260505224512 | 82 | 131 | 3.5 | 8.7 | 0.00 | 0.00 | 0.00 | 80 | 1006.5 |
| 20260505223011 | 82 | 198 | 2.6 | 8.7 | 0.00 | 0.00 | 0.00 | 79 | 1006.7 |
| 20260505221510 | 82 | 142 | 3.5 | 9.6 | 0.00 | 0.00 | 0.00 | 79 | 1006.6 |
| 20260505220007 | 83 | 180 | 3.5 | 9.6 | 0.00 | 0.00 | 0.00 | 78 | 1006.8 |
| 20260505214506 | 83 | 217 | 1.7 | 7.8 | 0.00 | 0.00 | 0.00 | 78 | 1007.0 |
| 20260505213004 | 84 | 191 | 2.6 | 7.8 | 0.00 | 0.00 | 0.00 | 78 | 1007.1 |
| 20260505211502 | 83 | 165 | 3.5 | 12.2 | 0.00 | 0.00 | 0.00 | 78 | 1007.3 |
| 20260505210103 | 83 | 169 | 2.6 | 9.6 | 0.00 | 0.00 | 0.00 | 79 | 1007.5 |
| 20260505204602 | 83 | 137 | 3.5 | 13.0 | 0.00 | 0.00 | 0.00 | 78 | 1007.8 |
| 20260505203059 | 83 | 145 | 2.6 | 8.7 | 0.00 | 0.00 | 0.00 | 77 | 1007.9 |
| 20260505201559 | 84 | 133 | 2.6 | 7.8 | 0.00 | 0.00 | 0.00 | 77 | 1008.1 |
| 20260505200055 | 84 | 173 | 1.7 | 9.6 | 0.00 | 0.00 | 0.00 | 76 | 1008.3 |
| 20260505194608 | 84 | 146 | 1.7 | 7.0 | 0.00 | 0.00 | 0.00 | 79 | 1008.4 |